| time (UTC) | temp F | wind direction | speed knots | gust knots | rain 1hr in | rain 24hr in | rain mn in | humidity % | barometer mb |
| 20260504081547 | 38 | 260 | 7.0 | 17.4 | 0.00 | 0.00 | 0.00 | 89 | 977.9 |
| 20260504050023 | 39 | 163 | 9.6 | 26.9 | 0.00 | 0.00 | 0.00 | 91 | 975.4 |
| 20260504044522 | 39 | 190 | 8.7 | 23.5 | 0.00 | 0.00 | 0.00 | 91 | 975.9 |
| 20260504043033 | 39 | 194 | 6.1 | 25.2 | 0.00 | 0.00 | 0.00 | 91 | 977.0 |
| 20260504041512 | 39 | 190 | 8.7 | 24.3 | 0.00 | 0.00 | 0.00 | 91 | 977.8 |
| 20260504040012 | 40 | 196 | 8.7 | 20.9 | 0.00 | 0.00 | 0.00 | 90 | 978.7 |
| 20260504034507 | 40 | 166 | 11.3 | 23.5 | 0.00 | 0.00 | 0.00 | 89 | 979.2 |
| 20260504033003 | 40 | 218 | 10.4 | 19.1 | 0.00 | 0.00 | 0.00 | 87 | 980.0 |
| 20260504031603 | 40 | 183 | 4.3 | 16.5 | 0.00 | 0.00 | 0.00 | 86 | 980.5 |
| 20260504030057 | 41 | 212 | 5.2 | 20.0 | 0.00 | 0.00 | 0.00 | 86 | 981.4 |
| 20260504024555 | 41 | 224 | 5.2 | 16.5 | 0.00 | 0.00 | 0.00 | 87 | 982.3 |
| 20260504023052 | 41 | 226 | 7.8 | 15.6 | 0.00 | 0.00 | 0.00 | 87 | 982.8 |
| 20260504021549 | 42 | 184 | 7.0 | 13.0 | 0.00 | 0.00 | 0.00 | 87 | 983.3 |
| 20260504020126 | 42 | 194 | 6.1 | 17.4 | 0.00 | 0.00 | 0.00 | 87 | 983.7 |
| 20260504014559 | 42 | 218 | 5.2 | 12.2 | 0.00 | 0.00 | 0.00 | 87 | 984.2 |
| 20260504013055 | 41 | 184 | 4.3 | 11.3 | 0.00 | 0.00 | 0.00 | 88 | 984.6 |
| 20260504011541 | 41 | 165 | 4.3 | 11.3 | 0.00 | 0.00 | 0.00 | 88 | 984.9 |
| 20260504010043 | 40 | 181 | 4.3 | 15.6 | 0.00 | 0.00 | 0.00 | 88 | 985.7 |
| 20260504004546 | 40 | 173 | 5.2 | 21.7 | 0.00 | 0.00 | 0.00 | 88 | 986.7 |
| 20260504003033 | 39 | 150 | 7.0 | 16.5 | 0.00 | 0.00 | 0.00 | 88 | 987.4 |
| 20260504001536 | 38 | 119 | 7.0 | 15.6 | 0.00 | 0.00 | 0.00 | 88 | 988.3 |
| 20260504000028 | 38 | 121 | 7.0 | 18.2 | 0.00 | 0.00 | 0.00 | 89 | 988.9 |
| 20260503234527 | 38 | 119 | 6.1 | 15.6 | 0.00 | 0.00 | 0.00 | 89 | 989.3 |
| 20260503233023 | 38 | 92 | 7.8 | 15.6 | 0.00 | 0.00 | 0.00 | 89 | 990.3 |
| 20260503231520 | 38 | 171 | 4.3 | 11.3 | 0.00 | 0.00 | 0.00 | 89 | 991.9 |
| 20260503230016 | 38 | 84 | 4.3 | 15.6 | 0.00 | 0.00 | 0.00 | 89 | 992.9 |
| 20260503224512 | 38 | 131 | 7.0 | 13.0 | 0.00 | 0.00 | 0.00 | 90 | 993.9 |
| 20260503223009 | 38 | 132 | 5.2 | 13.9 | 0.00 | 0.00 | 0.00 | 90 | 994.9 |
| 20260503221509 | 38 | 156 | 3.5 | 8.7 | 0.00 | 0.00 | 0.00 | 91 | 995.5 |
| 20260503220005 | 38 | 109 | 3.5 | 10.4 | 0.00 | 0.00 | 0.00 | 91 | 996.0 |
| 20260503214503 | 37 | 171 | 4.3 | 11.3 | 0.00 | 0.00 | 0.00 | 92 | 996.4 |
| 20260503213007 | 37 | 142 | 3.5 | 12.2 | 0.00 | 0.00 | 0.00 | 93 | 996.5 |
| 20260503211500 | 36 | 115 | 7.0 | 13.0 | 0.00 | 0.00 | 0.00 | 94 | 996.7 |
| 20260503210058 | 36 | 127 | 6.1 | 15.6 | 0.00 | 0.00 | 0.00 | 94 | 997.8 |
| 20260503204557 | 36 | 73 | 5.2 | 16.5 | 0.00 | 0.00 | 0.00 | 94 | 998.8 |
| 20260503203111 | 36 | 158 | 5.2 | 13.0 | 0.00 | 0.00 | 0.00 | 94 | 999.2 |
| 20260503201552 | 35 | 93 | 2.6 | 11.3 | 0.00 | 0.00 | 0.00 | 94 | 1000.5 |
| 20260503200050 | 35 | 111 | 5.2 | 16.5 | 0.00 | 0.00 | 0.00 | 94 | 1001.3 |
| 20260503194548 | 35 | 101 | 7.0 | 14.8 | 0.00 | 0.00 | 0.00 | 94 | 1001.9 |
| 20260503193047 | 35 | 131 | 7.0 | 13.0 | 0.00 | 0.00 | 0.00 | 93 | 1001.6 |
| 20260503191547 | 37 | 82 | 4.3 | 10.4 | 0.00 | 0.00 | 0.00 | 93 | 1002.6 |
| 20260503190054 | 38 | 200 | 4.3 | 10.4 | 0.00 | 0.00 | 0.00 | 92 | 1004.1 |
| 20260503184538 | 39 | 64 | 4.3 | 8.7 | 0.00 | 0.00 | 0.00 | 91 | 1004.3 |
| 20260503183036 | 40 | 119 | 3.5 | 7.8 | 0.00 | 0.00 | 0.00 | 90 | 1006.0 |
| 20260503181536 | 40 | 88 | 3.5 | 8.7 | 0.00 | 0.00 | 0.00 | 89 | 1005.8 |
| 20260503180034 | 40 | 80 | 2.6 | 7.8 | 0.00 | 0.00 | 0.00 | 89 | 1007.0 |
| 20260503174527 | 40 | 106 | 1.7 | 7.0 | 0.00 | 0.00 | 0.00 | 88 | 1008.3 |
| 20260503173026 | 40 | 121 | 3.5 | 7.8 | 0.00 | 0.00 | 0.00 | 87 | 1008.4 |
| 20260503171524 | 40 | 106 | 0.9 | 7.0 | 0.00 | 0.00 | 0.00 | 86 | 1009.2 |